Wind_Speed
65 65 66 67 67 67 67 68 69 68 68 70 70 70 72 73 74 74 74 75 75 76 76 77 77 78 79 80 81 82 83 83 83 84 85 86 87 87 87 87 88 89 88 86 84 82 81 80 76 74 73 73 71 68 66 65 63 60 56 53 50 46 43 37 34 33 30 30 31 33 34 34 33 34 36 35 35 35 36 35 35 33 31 30 30
67 68 68 69 68 68 69 70 69 69 71 72 72 73 75 75 75 76 76 76 77 77 78 78 79 79 80 81 82 83 84 84 84 85 86 87 88 88 88 88 89 87 85 83 80 80 79 78 75 74 72 70 67 65 63 62 60 57 53 49 47 42 38 33 30 30 29 30 32 32 33 33 33 35 36 35 34 35 35 35 34 32 30 30 30
70 70 70 70 69 70 70 71 71 72 74 74 75 76 77 77 77 77 78 78 79 79 79 80 80 81 82 83 83 84 85 85 86 87 87 88 89 89 89 88 87 84 81 79 78 78 78 76 75 72 68 65 63 62 61 59 57 54 50 46 43 38 33 29 26 26 28 30 32 33 32 32 34 35 35 34 34 35 36 36 34 31 29 29 29
72 72 72 72 72 72 73 73 74 75 76 77 77 78 78 78 79 79 80 80 80 81 81 82 82 83 84 84 84 86 86 87 88 88 89 89 90 89 88 86 83 80 77 76 76 77 75 74 71 67 64 61 59 58 57 55 52 50 46 42 38 34 29 25 24 25 28 32 35 35 35 35 36 35 33 34 34 35 36 36 34 30 29 29 28
73 73 74 74 74 74 75 76 76 77 77 78 79 79 79 80 81 81 81 82 82 82 83 83 84 85 84 85 86 87 88 88 89 90 90 90 88 87 85 81 78 75 73 74 76 74 71 69 67 64 61 57 55 54 53 51 49 47 43 39 34 29 24 23 27 28 31 35 37 38 38 38 35 33 32 34 34 35 36 36 33 29 28 28 28
73 73 74 75 75 76 77 77 78 78 79 80 80 80 81 82 82 82 83 83 83 84 85 85 85 85 86 87 87 88 89 90 91 92 90 88 85 83 79 74 72 72 72 74 73 69 67 66 63 60 55 52 51 51 50 49 46 43 38 33 28 23 21 25 30 31 32 35 37 39 40 36 31 31 33 35 34 34 35 35 32 28 27 27 27
74 74 75 76 77 78 78 79 80 80 80 81 81 82 83 83 83 83 84 84 85 86 86 86 86 87 87 88 89 90 91 92 92 91 87 84 81 77 73 70 70 71 71 70 66 65 66 63 58 54 50 49 49 49 48 46 42 37 32 27 22 20 22 27 30 32 35 38 40 40 40 36 31 32 35 35 34 34 35 34 31 27 26 26 26
76 77 77 78 78 79 80 80 80 81 81 82 83 83 84 84 84 85 85 86 86 86 86 87 88 89 89 90 91 91 92 93 90 86 83 79 74 71 69 69 68 68 67 65 63 64 64 59 54 50 48 48 48 47 46 42 36 29 23 20 17 18 23 28 31 34 37 39 40 40 40 37 34 34 35 35 35 34 34 33 29 26 25 26 25
75 77 78 79 79 80 81 81 81 82 82 83 83 84 85 85 86 86 87 87 87 87 88 89 91 91 91 92 92 92 92 88 84 81 78 72 68 67 68 67 66 65 63 62 64 64 60 54 50 46 45 46 46 44 42 37 30 22 17 16 17 19 24 30 35 37 39 40 41 41 41 39 38 38 37 36 35 34 34 31 27 25 25 25 24
78 80 80 81 81 82 82 82 83 82 83 83 85 85 86 86 86 87 87 88 88 89 90 92 93 93 92 92 92 89 84 80 79 75 69 66 65 66 67 66 64 63 61 62 64 60 54 50 45 42 42 43 42 40 37 33 26 17 15 17 21 24 27 33 37 40 42 43 43 43 43 42 40 40 39 37 35 34 32 28 25 24 24 24 23
81 82 82 83 83 82 83 83 82 82 83 85 86 86 86 87 88 88 89 89 90 91 93 94 93 92 92 91 86 79 76 75 71 64 63 65 66 66 66 65 63 60 60 62 60 53 48 46 42 39 39 39 37 34 33 31 24 19 18 21 24 27 31 35 39 40 42 43 44 45 44 41 38 37 37 36 34 32 28 25 24 24 23 23 22
83 83 84 84 83 82 81 81 82 83 83 84 85 87 88 89 90 91 91 92 93 93 93 92 91 91 86 79 74 72 71 65 59 60 66 68 66 65 65 62 59 58 61 60 53 46 44 44 41 37 37 38 35 32 32 30 25 23 22 21 23 28 33 37 39 41 43 44 45 42 37 34 33 34 33 32 30 27 25 24 24 24 23 22 22
85 84 83 82 81 80 80 81 83 83 84 87 89 90 91 92 92 93 93 93 92 91 91 90 87 79 71 68 66 63 57 52 57 64 66 65 64 64 63 59 56 59 60 54 47 43 42 42 39 36 36 36 36 33 32 30 26 25 23 22 25 30 34 37 39 41 41 40 38 33 30 31 31 30 29 27 26 25 24 25 25 24 22 22 21
85 84 83 82 81 82 84 86 86 86 88 90 91 91 92 93 94 94 92 91 88 86 85 79 71 62 60 63 57 49 47 53 63 65 63 63 64 65 62 58 59 60 54 47 43 41 39 38 35 34 34 33 35 33 30 30 28 25 24 25 28 31 34 36 37 35 33 33 31 28 28 29 28 27 26 25 24 24 25 26 26 24 23 22 21
86 86 85 84 86 88 89 88 88 88 89 90 90 91 92 92 91 90 89 86 84 81 75 65 59 55 55 54 50 51 54 60 65 63 63 65 67 68 64 62 62 56 46 42 40 39 37 35 35 35 36 34 33 32 31 30 29 28 27 28 30 33 33 31 29 27 28 29 28 26 24 24 24 24 24 24 24 25 26 27 26 24 23 22 21
88 87 88 88 89 89 89 89 89 89 90 89 89 89 89 89 89 87 85 81 77 71 64 57 55 55 56 55 56 59 61 62 64 65 68 69 70 67 64 63 58 48 41 40 38 36 35 35 36 36 36 34 32 32 32 31 30 30 29 29 30 33 32 26 24 25 26 25 23 20 19 19 20 22 23 24 25 26 27 27 25 24 23 22 22
87 88 88 87 87 88 90 90 90 89 90 90 89 88 88 89 86 84 80 74 68 60 57 57 60 65 68 67 65 63 63 64 66 70 73 71 66 61 59 57 49 42 38 36 34 33 34 35 37 37 37 35 33 32 33 32 31 30 29 29 28 30 29 26 26 25 23 21 19 18 19 20 21 23 24 25 26 28 28 27 25 24 23 23 22
88 88 88 89 90 90 90 89 89 90 89 88 88 86 85 82 79 76 72 67 61 55 58 64 68 70 70 68 65 64 64 66 70 73 70 63 56 54 52 47 41 37 34 33 34 34 36 39 42 42 41 38 37 35 33 31 31 30 28 28 27 27 26 27 28 25 23 21 19 20 21 22 23 24 25 26 27 28 27 26 24 24 24 24 24
88 88 89 88 88 89 90 90 90 90 88 85 84 83 77 73 72 70 68 65 62 59 61 63 62 63 63 64 63 62 64 69 71 67 60 53 50 48 43 37 34 33 32 33 34 37 40 43 43 41 40 39 37 35 33 31 30 29 27 27 27 25 25 28 30 28 25 23 21 22 23 23 25 25 25 25 26 26 26 25 24 24 25 25 25
88 88 88 88 90 90 87 82 81 79 78 78 77 76 73 72 71 68 67 67 66 66 64 61 61 63 65 66 64 62 66 69 64 57 53 49 46 42 36 34 33 32 32 33 36 40 43 42 38 37 38 36 33 32 31 29 28 28 27 27 26 25 25 28 31 30 29 26 24 25 25 25 26 26 25 25 25 25 25 25 24 25 25 26 27
86 84 83 85 85 81 73 67 70 69 68 70 70 72 75 75 70 67 69 69 68 68 67 66 67 69 68 66 64 64 66 64 56 53 52 49 46 40 35 34 33 32 32 35 39 42 42 38 34 33 34 32 30 29 28 27 27 27 26 25 25 24 24 27 31 32 32 28 26 27 27 27 27 26 26 26 26 25 25 25 25 26 27 28 28
80 77 72 68 67 69 69 64 67 68 66 68 69 70 72 71 70 71 73 72 71 69 68 67 66 66 64 62 62 63 63 60 54 50 47 45 43 37 32 30 29 32 36 39 41 41 39 35 32 30 28 28 26 26 26 27 26 25 24 23 23 22 22 24 29 33 33 30 28 28 27 26 26 26 26 27 27 27 26 26 26 28 29 29 29
76 76 72 67 66 68 65 59 62 66 67 68 67 69 71 73 74 73 70 68 67 67 65 60 59 61 61 62 64 64 65 62 55 47 43 43 39 34 31 29 31 35 37 38 39 37 33 31 29 27 24 23 22 22 24 25 25 25 24 22 21 21 21 22 26 30 31 29 28 27 26 25 25 25 26 27 28 29 29 27 28 29 30 30 30
81 81 78 77 75 70 64 63 68 71 72 71 72 75 76 76 75 72 70 67 65 64 63 60 62 65 65 68 68 67 66 63 56 48 44 43 39 34 31 30 32 33 33 34 32 29 27 27 26 24 22 19 18 20 22 24 24 24 23 21 21 20 21 21 24 27 27 26 27 27 26 26 26 27 28 29 30 31 31 30 30 31 32 32 31
84 84 82 82 81 78 76 75 75 77 78 78 78 79 77 74 72 71 69 67 65 65 67 68 69 68 68 69 66 63 62 59 54 46 43 44 42 36 31 32 32 31 31 29 25 24 24 24 24 23 19 15 15 19 22 24 23 22 20 20 20 20 19 21 25 27 26 25 27 27 28 28 29 29 30 32 33 32 32 31 32 33 34 34 33
81 80 79 79 79 77 75 74 73 75 77 78 78 76 74 73 71 68 66 66 68 68 70 70 67 65 64 64 60 59 60 57 50 41 41 44 45 40 35 36 36 33 31 23 20 23 27 26 25 22 15 12 15 18 21 23 22 20 18 18 19 19 19 21 25 27 27 27 28 29 30 31 31 31 32 34 35 34 33 33 34 35 36 36 34
77 76 74 74 73 72 71 71 71 71 72 73 72 70 69 69 68 68 68 68 67 66 67 65 63 61 61 60 58 60 59 52 43 37 38 40 41 40 39 41 40 36 31 24 24 29 32 29 25 24 18 15 17 18 19 22 22 19 18 17 16 17 19 23 26 27 28 29 30 31 31 31 30 30 30 31 33 33 32 33 35 35 35 35 34
72 70 71 71 71 72 71 70 69 68 69 69 68 67 66 66 67 67 66 64 62 61 61 61 61 61 60 58 57 57 55 48 41 37 35 36 35 35 39 44 44 41 36 31 32 34 35 29 26 28 23 20 20 18 17 21 22 20 18 18 17 18 19 23 26 27 28 29 29 29 29 29 28 27 28 29 31 32 32 32 33 34 34 34 34
70 69 70 70 71 71 71 68 67 67 68 67 64 63 62 62 63 64 62 60 59 59 59 59 60 59 57 56 54 55 52 47 44 41 37 36 36 36 40 44 44 43 39 36 35 34 31 26 24 26 25 24 23 20 20 23 22 21 21 20 19 20 21 24 26 26 26 25 26 26 26 27 27 28 29 31 32 33 34 34 34 35 35 35 36
71 71 69 68 68 68 68 68 67 65 64 62 61 61 60 60 61 61 59 58 57 56 55 55 54 53 52 52 53 54 51 47 45 44 41 40 41 39 38 41 42 42 40 37 35 32 28 24 23 26 26 26 25 23 25 27 24 23 24 21 20 20 20 22 22 22 22 21 23 25 26 27 27 29 32 35 37 38 37 37 37 37 37 38 38
69 68 67 65 65 65 65 63 62 59 58 60 62 61 60 59 59 59 56 55 54 52 51 51 48 45 43 44 45 46 45 43 42 43 43 43 41 37 36 38 41 42 39 35 32 30 30 30 29 29 30 29 27 23 26 29 26 25 23 20 19 17 16 18 20 21 21 22 25 25 27 29 30 32 35 38 40 40 39 39 40 40 39 39 39
68 66 64 63 62 59 56 55 55 57 58 61 62 61 60 58 57 58 56 54 52 52 52 50 46 43 41 40 39 40 40 40 40 41 44 45 44 42 40 41 42 40 37 34 31 30 33 35 33 32 31 31 30 27 29 29 26 26 22 19 18 15 14 19 24 25 25 27 28 27 29 32 34 37 37 36 36 37 37 37 39 41 41 40 40
65 64 62 62 60 55 54 57 58 59 60 61 61 60 59 57 55 54 55 55 53 52 52 52 51 48 44 43 44 44 43 43 42 42 44 46 48 50 49 45 43 42 39 36 34 33 35 35 35 35 32 32 34 34 32 28 27 29 24 18 18 18 21 25 27 28 28 28 29 30 32 34 36 37 37 35 36 36 36 35 37 40 41 40 39
63 62 61 60 58 55 58 62 62 60 60 60 61 59 57 56 55 53 53 55 56 55 55 56 57 54 49 47 48 49 48 48 47 46 46 47 49 53 54 51 48 46 45 42 40 39 39 39 40 38 34 35 37 37 34 31 32 31 25 18 16 20 25 29 29 27 27 28 29 32 35 35 35 35 35 36 37 37 36 36 36 36 35 35 34
61 60 59 57 54 56 60 63 61 59 59 60 60 59 57 57 57 57 56 55 57 59 60 59 58 57 54 51 50 49 49 50 50 50 50 50 51 52 53 54 53 50 49 47 46 45 44 44 44 40 37 36 36 36 34 33 33 30 25 19 16 20 24 27 27 25 27 29 31 34 36 36 36 35 35 37 38 37 36 36 35 33 30 30 30
59 58 57 53 53 58 61 61 59 57 58 58 58 57 56 56 56 57 55 54 56 59 61 61 60 59 58 57 55 53 52 52 52 53 54 52 52 51 50 52 54 54 55 53 50 48 47 47 45 42 39 38 35 33 32 30 27 25 25 21 16 19 22 24 26 27 29 31 32 34 36 36 37 37 38 39 38 36 35 36 36 33 30 28 27
58 58 56 54 55 58 59 59 56 54 56 57 56 54 53 53 52 51 51 52 54 56 59 61 61 60 61 61 61 59 57 56 56 55 56 55 54 53 50 51 53 56 59 60 55 51 49 48 46 42 40 39 36 33 31 27 23 23 27 24 18 17 20 22 25 28 30 31 33 34 36 37 38 39 39 38 37 36 36 35 34 33 30 27 27
56 55 55 55 55 55 57 57 53 51 53 55 55 53 51 49 47 46 45 46 48 50 52 55 55 54 54 55 56 55 54 54 55 55 56 57 57 56 56 56 56 56 58 59 56 53 52 49 44 42 41 39 36 31 28 26 25 25 27 27 22 19 19 19 22 25 27 29 32 34 36 38 38 39 38 35 34 35 35 34 32 31 29 28 28
53 54 53 52 52 53 53 52 49 49 49 51 51 50 48 46 43 42 41 42 43 44 45 46 45 44 45 46 46 47 48 49 50 51 53 56 57 57 57 58 58 57 56 55 54 53 53 50 43 41 43 41 38 35 31 29 27 25 25 27 26 26 26 22 22 25 26 28 30 32 34 34 34 33 32 30 29 29 30 29 27 27 27 27 27
52 52 49 47 48 48 49 49 46 44 44 46 46 45 45 43 40 39 39 40 39 38 39 39 40 39 39 40 40 41 43 44 45 46 48 50 52 53 52 54 55 56 56 56 54 50 46 45 43 43 45 43 41 40 36 32 28 25 24 27 29 31 31 27 24 24 26 28 28 29 31 30 29 28 27 26 25 25 27 26 24 26 27 26 27
51 47 45 43 41 42 47 48 44 42 42 43 42 42 43 40 38 37 37 38 37 37 38 39 39 38 37 38 39 40 41 42 43 43 44 46 47 48 49 50 51 52 54 53 52 48 43 42 42 42 45 45 43 42 41 35 30 27 26 29 33 33 30 27 24 23 27 28 26 25 26 26 25 26 26 25 24 24 26 27 25 26 27 27 27
47 45 42 34 28 32 41 44 42 42 43 42 40 40 39 37 36 38 39 39 40 41 40 39 38 37 38 39 40 40 41 41 40 39 41 42 41 43 45 47 47 48 48 47 46 44 42 43 43 42 44 44 43 42 41 37 32 30 29 30 34 34 31 30 28 26 30 31 28 25 26 25 24 26 28 27 24 24 27 28 27 27 27 28 28
44 43 36 24 21 24 34 42 42 43 43 41 40 38 36 33 33 37 39 39 39 38 36 35 36 38 40 40 40 41 41 41 40 39 39 38 37 38 40 42 44 45 45 44 43 41 40 43 44 44 45 45 43 41 39 37 34 32 32 32 33 34 32 31 30 29 31 32 30 25 26 28 28 29 30 29 27 26 27 28 28 29 29 29 30
43 39 30 25 23 24 34 44 44 43 43 40 39 37 34 33 33 36 36 34 33 33 33 35 37 39 40 40 41 41 41 41 40 40 39 37 37 39 39 39 40 42 43 42 42 41 42 44 45 46 49 49 47 45 42 39 36 35 36 35 35 35 33 32 33 32 32 32 31 27 28 31 32 33 33 31 30 28 27 28 29 29 30 31 33
35 27 21 21 22 24 33 41 41 42 41 38 35 33 32 32 32 32 31 29 30 33 35 37 39 40 40 41 42 41 40 39 39 39 39 38 39 39 39 39 38 38 40 42 44 44 44 45 46 47 50 52 50 47 43 40 37 38 39 39 38 37 35 33 33 34 34 34 35 33 31 32 33 35 35 33 32 30 28 29 30 31 33 33 33
23 16 12 15 20 23 31 38 40 40 37 34 32 30 30 31 30 29 28 29 31 34 36 38 40 41 41 41 39 38 38 38 38 38 37 37 37 37 37 37 37 37 38 41 44 47 47 47 46 46 48 51 50 47 44 41 40 41 41 41 42 40 37 34 33 33 33 34 35 36 37 37 36 36 36 35 34 34 33 32 32 33 35 35 34
18 14 13 19 25 27 32 39 42 39 36 34 32 31 31 30 30 29 29 30 32 34 37 39 41 42 41 40 37 36 36 36 36 36 36 35 34 34 34 34 35 37 38 40 43 47 49 48 46 45 45 47 48 46 43 41 41 42 41 40 41 41 38 36 36 35 35 35 36 38 41 43 42 40 39 39 39 39 40 39 37 36 36 36 36
17 17 22 30 35 35 38 42 43 42 39 35 33 34 33 31 30 30 31 33 34 35 37 40 42 42 40 38 37 36 35 34 34 34 35 34 33 32 31 31 32 35 37 38 40 44 48 49 46 45 44 44 45 45 44 40 40 41 38 36 37 37 36 37 38 39 38 38 38 39 41 42 44 43 41 41 43 44 45 44 43 42 41 40 40
19 22 28 35 38 41 44 47 46 41 37 33 32 34 33 32 32 32 32 33 34 35 38 40 41 40 37 35 33 33 32 31 31 32 33 33 32 32 31 31 31 33 36 37 38 41 45 48 48 48 47 46 46 46 45 42 40 39 36 35 37 38 39 41 41 40 40 40 41 41 41 42 43 43 42 42 44 46 47 47 48 48 47 46 44
23 27 33 36 38 42 47 50 47 40 35 33 32 32 31 32 34 33 32 32 33 34 35 36 35 33 32 30 29 29 30 30 30 30 31 31 31 31 31 31 31 33 35 37 39 40 42 44 46 47 47 47 47 46 47 46 44 43 41 40 42 43 44 45 44 42 41 40 40 40 40 42 42 42 42 43 45 47 48 50 51 51 49 48 46
24 31 39 43 42 45 50 52 48 41 37 35 33 32 31 31 33 32 30 29 30 31 30 30 29 29 29 27 27 27 28 28 29 29 29 29 29 29 29 30 31 33 35 37 39 41 42 43 44 44 45 46 46 46 46 47 48 47 47 46 46 46 47 47 47 46 44 41 40 39 39 41 41 41 42 44 47 49 51 52 52 52 50 48 47
Wind_Direction
282 282 283 284 284 285 285 286 287 288 290 291 291 292 294 295 296 297 298 299 299 300 301 302 303 303 304 304 304 304 304 305 306 307 307 307 308 309 310 310 310 310 309 309 308 309 309 310 310 310 309 309 309 308 307 307 306 307 307 306 305 303 302 299 292 289 285 280 280 282 284 285 287 288 290 292 293 295 297 300 304 304 299 296 295
281 282 283 283 283 284 284 285 286 287 289 290 290 291 293 294 295 296 297 298 298 299 300 301 302 302 302 302 302 303 304 305 306 306 307 307 308 309 309 310 310 309 308 307 308 308 309 310 310 309 309 308 308 308 307 306 306 307 307 306 305 303 301 297 288 283 281 279 280 281 284 285 286 286 287 290 292 293 295 299 303 302 298 295 294
280 281 282 282 282 283 284 285 286 287 288 289 290 291 293 294 295 296 297 297 298 299 300 301 301 301 301 301 302 303 305 305 306 306 306 307 308 309 309 309 309 308 307 307 308 308 309 309 309 308 309 309 308 308 307 306 306 307 307 306 304 303 298 293 285 280 279 277 276 278 281 281 281 281 285 289 291 291 293 298 302 300 296 293 293
280 280 281 281 281 283 284 285 285 286 287 288 289 291 292 293 294 295 296 297 297 298 299 300 300 300 300 301 302 303 304 305 305 306 306 307 308 308 309 308 307 307 307 307 307 308 309 309 309 309 309 309 308 307 306 307 307 307 307 306 304 301 294 287 283 278 274 271 271 275 280 281 279 280 285 288 288 289 291 296 300 297 293 291 291
279 280 280 281 281 282 283 284 284 285 286 288 289 291 292 293 294 295 295 296 297 298 299 299 299 299 300 301 302 303 304 304 305 305 306 307 308 308 308 307 306 306 307 307 308 309 309 309 310 310 310 308 308 307 307 308 308 308 308 306 302 297 290 286 280 270 265 267 271 277 283 285 281 281 284 285 286 287 289 294 297 294 291 290 290
278 279 279 280 281 282 282 282 283 284 286 288 289 291 292 293 293 294 295 296 296 297 298 298 299 299 300 301 302 302 303 304 305 305 306 307 307 307 306 306 306 306 306 307 308 308 309 310 311 311 310 309 308 308 309 309 309 310 308 304 299 291 286 282 274 264 262 269 276 280 285 286 280 279 282 282 284 285 287 291 293 290 288 287 288
276 277 278 278 279 280 281 281 283 284 286 288 289 291 292 292 293 294 295 295 296 297 297 298 298 299 300 300 301 302 303 303 305 306 306 306 306 305 304 305 305 306 308 309 309 308 310 311 311 311 310 310 309 310 310 310 311 310 307 301 291 283 280 276 269 265 267 273 277 280 284 284 275 276 280 280 282 283 285 289 289 285 285 285 286
275 276 277 278 279 280 280 282 283 285 287 288 289 290 291 292 292 293 294 295 295 296 297 297 298 298 299 300 301 302 303 304 305 305 305 305 304 303 303 304 306 308 310 310 309 309 310 311 311 311 311 311 311 311 310 311 311 309 303 295 282 275 277 273 268 268 270 273 276 277 282 284 277 277 279 279 280 280 283 286 283 280 282 282 284
275 277 277 278 279 280 281 282 284 286 287 288 289 290 290 291 291 293 294 294 295 296 296 297 297 298 299 300 301 302 304 304 304 304 303 302 302 302 303 305 308 311 311 310 310 310 310 310 312 313 312 311 311 311 311 313 311 305 298 290 283 281 280 275 269 268 269 272 275 275 280 283 280 279 278 277 278 278 281 281 277 276 278 279 282
276 277 278 279 279 280 281 284 286 287 287 288 288 288 289 290 291 293 293 294 295 295 296 297 297 298 299 301 302 303 305 304 302 301 301 301 301 302 303 305 309 309 309 310 309 309 309 311 315 314 310 309 310 312 314 314 308 298 290 286 287 289 285 275 269 269 270 272 273 275 281 281 278 277 276 275 275 277 278 275 272 273 275 276 280
277 277 278 279 279 280 282 284 286 287 287 287 287 288 289 290 291 292 293 293 294 295 296 297 298 299 300 301 302 304 304 302 299 300 302 302 302 303 304 306 307 307 308 309 308 308 310 313 316 314 310 311 313 314 316 315 306 289 279 279 284 287 280 272 268 269 271 273 275 278 281 280 277 276 274 274 274 274 272 269 270 271 271 273 278
277 277 278 278 279 281 283 284 285 286 286 286 287 288 289 290 291 292 292 293 294 295 296 297 299 300 301 302 302 303 302 298 298 302 304 302 302 305 306 306 305 305 308 307 306 307 310 314 317 317 314 315 317 317 317 315 306 290 280 277 281 280 273 268 268 270 273 275 278 280 279 278 278 276 274 272 270 268 266 267 269 268 267 270 276
275 276 278 279 280 282 283 284 284 284 284 286 288 289 289 291 291 292 292 293 294 295 297 298 299 300 300 301 300 300 299 297 302 304 302 301 303 306 306 304 304 306 306 303 303 306 310 314 316 317 315 315 317 320 319 316 310 295 283 276 273 271 268 268 269 272 277 279 280 278 277 277 278 275 271 268 265 263 265 267 268 265 263 268 273
275 276 278 279 280 281 283 283 283 284 285 287 288 289 290 291 291 291 291 292 294 296 298 298 298 297 298 300 298 296 294 296 302 303 300 299 303 304 303 303 304 305 302 299 302 305 310 314 317 318 318 315 315 320 320 315 310 297 284 276 272 270 270 271 272 277 282 284 282 278 277 277 275 271 267 263 262 265 267 268 266 261 260 266 271
275 277 278 278 279 281 282 282 283 284 285 286 287 287 288 289 289 289 290 292 294 295 297 297 296 296 297 298 296 294 293 296 301 301 299 299 301 302 300 302 304 302 297 296 301 305 311 317 320 322 321 318 317 319 317 312 307 298 291 286 280 278 279 275 273 280 285 285 282 279 278 274 270 266 263 262 264 267 269 269 263 257 259 264 268
275 277 277 278 279 279 279 280 281 282 284 285 285 285 286 287 288 289 291 293 295 293 293 294 295 295 297 296 294 293 295 298 301 300 299 299 300 300 299 302 302 296 292 295 301 307 315 320 322 322 322 322 322 319 313 308 304 299 295 289 282 279 282 273 269 280 283 282 279 278 277 273 268 264 263 265 267 269 271 268 260 255 259 262 266
274 275 276 276 276 277 278 279 281 282 283 284 284 284 285 286 287 289 291 293 294 290 290 293 293 292 293 293 292 292 295 298 301 300 300 299 300 299 300 300 296 291 291 298 305 312 318 320 320 320 321 323 323 320 313 307 303 301 296 290 282 278 276 264 265 276 278 276 274 274 274 271 268 265 266 267 268 271 271 265 257 257 260 262 265
273 273 273 273 274 275 277 279 282 284 285 284 283 284 286 286 287 289 289 290 289 289 293 293 290 289 289 291 292 292 293 297 300 300 299 299 299 299 300 296 291 290 295 301 307 312 317 317 317 317 318 319 320 321 320 313 306 302 299 294 288 281 270 258 262 271 274 270 267 270 271 269 268 267 266 267 270 272 269 261 257 260 264 264 265
273 273 273 273 274 276 279 283 284 285 285 284 284 285 286 287 288 288 288 288 287 288 292 290 287 286 288 291 292 291 292 295 298 298 298 297 297 298 297 291 289 292 298 305 309 311 313 314 314 314 317 318 320 323 322 316 309 304 301 298 293 283 266 256 260 267 270 267 266 270 270 270 269 267 267 267 269 269 265 260 260 264 267 268 267
272 273 273 274 277 280 282 285 285 285 284 284 286 285 284 286 288 287 287 288 287 287 287 284 283 286 290 290 289 289 291 294 296 295 296 295 295 295 290 286 288 293 300 306 308 309 311 312 311 314 318 319 321 323 319 316 312 304 300 297 293 284 266 257 260 265 267 266 269 272 272 272 270 269 268 267 267 266 262 261 264 267 269 270 270
273 273 274 276 279 281 282 283 283 284 283 283 285 284 285 286 286 285 287 288 287 287 286 282 281 284 288 287 286 287 289 292 292 293 296 294 292 290 286 286 289 294 301 304 306 309 310 309 310 315 319 320 322 320 315 315 312 305 298 295 292 285 269 259 261 265 266 266 270 274 275 273 272 271 269 267 266 264 261 261 264 268 270 271 272
274 274 275 278 280 281 283 282 281 279 279 282 284 284 285 285 285 284 286 286 285 285 285 283 280 282 284 284 285 286 287 289 290 293 295 290 289 289 288 288 291 299 303 305 308 309 310 310 313 318 320 321 321 318 314 313 311 304 298 295 293 288 275 265 265 266 266 267 270 273 274 272 272 271 270 269 267 265 263 261 263 267 271 273 274
273 273 274 276 278 280 282 280 279 278 279 281 283 284 284 285 286 285 286 285 284 284 283 281 280 281 281 282 285 286 286 287 287 289 287 283 285 288 291 293 298 305 305 307 311 312 314 316 319 320 321 323 322 320 318 316 311 303 299 297 294 291 281 272 269 268 266 266 268 269 269 269 270 269 271 273 272 268 264 262 263 266 270 274 276
273 274 275 275 275 276 275 275 277 279 281 282 282 284 286 286 287 285 284 283 282 282 280 279 281 282 281 282 285 285 286 285 284 284 281 278 281 285 290 296 302 306 307 310 314 316 320 321 320 319 321 325 324 325 326 325 322 310 300 296 295 290 282 274 269 268 267 265 263 264 268 271 272 272 273 276 277 274 269 265 264 265 268 272 276
273 274 276 276 275 275 275 275 276 277 279 280 280 282 283 284 285 283 282 281 280 279 278 279 282 282 281 282 284 284 283 283 284 282 276 272 276 281 286 293 297 301 307 311 314 317 320 318 316 316 320 325 326 328 330 331 332 322 306 298 296 293 286 276 267 265 267 266 263 264 269 274 276 275 275 276 277 276 273 269 266 267 268 271 274
273 274 276 276 276 276 277 277 277 277 277 278 279 279 279 280 281 280 279 279 279 279 278 279 280 279 279 280 281 281 281 282 283 278 272 269 272 276 279 287 292 296 303 304 304 307 310 313 313 314 317 322 325 326 328 331 332 330 319 307 301 297 291 281 273 269 268 268 268 270 273 278 279 277 277 277 276 276 275 273 271 271 271 272 272
273 274 275 276 277 277 278 278 279 278 277 278 279 280 279 279 279 278 278 278 279 278 277 277 277 277 278 278 278 279 279 280 278 274 271 269 270 271 274 281 286 289 294 289 287 293 300 308 311 314 312 306 313 317 322 327 327 328 325 318 312 304 294 283 279 276 272 271 271 273 276 279 280 279 277 275 274 274 275 275 275 274 273 272 270
273 273 274 277 278 278 278 279 279 277 277 279 279 279 279 278 277 276 276 276 277 276 276 276 277 278 278 277 277 276 277 275 271 269 268 267 267 268 273 281 283 283 286 284 283 287 292 300 304 310 306 294 303 309 314 321 320 321 320 316 311 309 301 289 283 281 278 275 275 276 276 274 272 272 271 271 270 270 271 273 274 274 273 271 269
272 274 276 278 279 279 279 279 278 278 278 278 277 278 278 276 275 274 273 273 274 275 276 278 279 279 277 276 276 275 275 272 266 264 262 261 262 267 275 281 280 280 283 282 282 282 286 295 299 304 297 284 290 296 302 310 311 313 313 308 302 303 300 292 287 286 284 279 278 278 272 268 267 269 271 272 272 270 269 270 271 273 273 274 273
274 276 277 278 279 281 280 280 279 278 277 276 276 277 277 275 273 271 271 272 275 276 276 276 276 278 277 276 276 274 273 271 266 262 259 258 261 268 276 280 277 277 279 278 278 275 277 288 295 300 294 280 279 284 294 300 300 307 309 302 296 296 293 289 286 285 284 283 282 279 274 271 271 274 277 277 277 274 272 271 271 272 274 276 275
275 276 277 278 279 281 282 280 278 276 275 277 277 277 276 274 270 268 270 272 274 273 272 271 272 276 276 276 275 273 273 271 266 261 258 258 262 267 273 279 277 275 274 275 276 271 270 278 285 294 293 284 277 278 291 294 297 306 305 298 294 293 290 283 277 274 276 277 278 279 277 275 275 279 280 279 276 274 273 274 272 271 272 274 274
276 276 277 278 279 282 281 277 275 275 277 279 278 278 277 274 270 267 267 269 270 270 269 266 268 273 273 273 274 274 273 270 268 264 260 259 260 263 269 276 276 273 272 273 273 267 266 271 278 287 289 286 278 276 287 290 295 305 300 295 293 282 270 265 264 269 275 278 280 282 280 278 278 279 279 278 276 273 274 276 276 273 272 272 272
276 276 277 278 279 282 278 273 275 279 280 279 278 277 276 272 270 268 266 266 267 266 266 265 268 273 272 270 271 274 275 273 271 269 265 263 262 262 266 272 273 271 271 272 271 268 267 271 279 285 284 282 279 277 282 281 290 300 292 290 294 277 263 261 266 275 281 282 283 281 279 279 279 278 276 278 279 277 275 278 280 277 272 270 270
276 277 277 279 281 279 273 274 278 279 279 278 277 276 275 272 269 269 268 265 265 265 265 265 268 271 272 270 271 274 276 274 273 271 269 267 264 262 263 267 268 269 270 270 270 271 272 276 282 284 281 280 277 275 277 277 286 291 281 285 299 286 272 269 274 280 281 280 279 277 276 276 277 277 276 278 282 280 277 278 280 278 273 270 267
276 277 278 280 280 275 273 276 278 279 279 278 277 276 274 273 269 270 270 265 264 265 265 266 267 268 271 273 273 274 275 274 273 272 271 269 267 265 263 263 265 266 266 267 269 270 273 278 283 283 282 279 273 272 277 281 285 280 275 287 297 291 282 276 275 275 275 276 276 276 275 274 273 274 275 279 281 278 276 277 277 278 278 275 270
277 278 279 279 276 275 276 278 279 280 280 278 277 276 275 273 271 270 270 266 264 264 265 266 267 269 271 273 273 273 272 272 272 272 271 270 269 267 264 263 264 264 265 267 270 272 275 280 283 281 280 274 266 270 277 279 279 274 277 291 295 293 288 277 272 270 271 271 270 271 273 273 274 275 277 278 277 273 273 275 273 275 279 276 274
278 280 280 278 277 278 278 279 280 279 279 278 278 278 276 274 272 270 270 268 266 265 264 265 268 270 271 272 272 272 271 269 269 269 269 268 267 266 264 264 264 264 265 267 269 273 278 280 280 276 273 267 259 265 270 266 268 276 281 284 282 280 276 272 271 270 269 268 267 268 271 275 275 277 278 277 273 270 271 273 272 273 273 269 268
278 280 280 280 279 279 279 279 279 277 276 277 278 278 277 275 274 272 271 269 266 266 265 265 267 269 270 271 272 272 271 269 267 267 267 266 266 266 265 265 266 264 264 264 267 273 277 276 274 269 266 260 254 257 258 252 261 276 277 274 267 253 252 264 272 272 271 270 271 271 273 277 278 277 278 276 271 270 271 271 270 268 266 265 265
277 279 280 281 281 281 281 280 278 277 277 278 277 277 276 275 273 271 268 266 265 266 265 264 266 270 272 273 273 273 273 271 269 268 267 266 266 266 266 265 265 263 262 263 266 270 272 270 266 261 258 254 249 250 247 244 257 269 264 261 257 246 247 261 270 275 277 277 280 280 278 280 282 278 275 274 271 271 272 269 266 263 262 264 266
277 278 280 284 285 284 283 281 279 279 279 278 277 275 273 272 270 268 265 262 262 263 264 266 270 274 276 275 275 276 277 276 274 272 270 268 267 267 266 264 263 262 262 263 264 265 265 263 262 257 253 250 250 249 246 246 257 266 256 246 246 248 252 257 264 273 278 281 286 288 285 284 284 281 277 275 273 273 272 265 261 261 262 264 268
276 278 283 287 286 283 282 280 278 278 278 277 276 274 272 268 265 263 260 257 258 265 270 272 274 275 277 278 279 281 281 281 280 277 274 272 270 268 266 263 262 261 261 262 261 260 258 256 256 253 249 248 249 247 244 246 256 265 257 244 243 247 249 250 255 262 267 275 283 287 286 283 281 282 281 277 272 266 265 264 261 261 261 261 265
276 278 284 286 277 278 280 278 279 279 278 276 275 274 272 266 260 255 254 257 263 270 274 275 276 279 283 285 287 288 288 288 285 282 278 275 272 270 267 262 260 258 258 259 258 257 253 249 247 245 244 245 244 242 243 248 257 262 255 247 244 244 249 251 252 256 259 265 274 278 278 275 275 279 280 277 271 263 260 260 258 257 257 257 260
277 278 280 271 253 260 270 274 281 283 279 275 273 272 270 265 258 255 257 263 269 272 275 277 280 283 286 288 291 293 293 291 289 285 281 277 273 272 270 265 261 258 256 255 252 250 247 245 243 242 241 241 240 245 251 256 261 258 250 247 246 248 255 258 257 256 255 258 267 274 273 270 270 274 276 276 273 268 263 260 257 257 257 257 258
279 279 275 264 252 251 262 270 277 281 280 276 271 270 268 265 262 261 263 266 269 272 276 281 283 285 287 290 292 294 293 291 289 285 281 276 272 270 269 266 262 257 254 250 244 242 242 243 243 243 244 244 245 252 257 260 262 256 248 248 250 253 261 264 263 260 254 253 258 266 272 271 270 271 273 276 271 266 264 262 258 256 257 260 262
280 279 274 269 264 259 263 268 272 276 276 274 272 270 268 266 264 263 261 260 264 270 275 280 283 286 290 292 293 292 291 289 286 282 279 274 270 267 265 263 260 255 251 246 240 238 240 243 244 245 247 248 251 254 257 260 260 254 250 249 249 254 261 266 268 266 261 256 254 258 267 270 269 268 271 273 268 261 261 260 255 254 257 261 264
280 279 270 257 252 253 259 263 269 273 271 270 272 272 268 264 261 256 253 256 262 269 274 278 282 287 290 290 289 288 286 285 282 279 275 271 268 265 262 259 255 251 248 245 239 237 239 242 244 246 247 250 252 255 258 260 256 251 250 249 248 253 260 265 269 269 266 261 256 256 260 264 263 263 265 267 263 258 257 258 258 259 260 261 262
276 267 251 238 234 238 251 259 263 266 265 267 270 268 265 261 257 251 247 253 262 266 272 278 283 287 289 288 286 284 282 280 279 276 272 268 264 262 260 256 254 249 245 243 240 237 239 242 243 244 247 249 251 254 257 254 247 244 246 249 251 254 259 264 269 270 267 264 261 259 260 261 261 260 260 261 261 259 258 259 263 266 265 263 262
272 247 234 231 229 228 238 249 254 257 261 265 268 266 261 257 255 249 244 250 256 262 272 280 285 287 287 285 284 282 280 278 276 273 269 265 262 259 257 254 252 250 247 244 240 237 237 240 243 244 246 248 249 251 249 243 239 239 244 253 257 258 261 266 270 271 267 264 264 265 264 263 263 262 262 262 262 262 262 262 265 268 270 269 266
264 248 236 230 229 227 232 242 248 253 257 261 267 266 260 258 255 248 244 245 251 261 273 281 284 284 283 282 282 281 279 278 276 272 267 263 261 259 256 253 250 249 248 247 243 239 238 239 242 245 246 248 248 247 245 242 240 242 247 254 258 261 265 270 272 270 267 265 265 267 267 266 264 263 264 264 263 263 264 265 267 270 275 277 273
264 261 253 242 234 233 237 244 247 250 254 259 265 264 262 264 257 247 242 243 252 263 273 278 279 279 279 279 280 280 278 277 276 274 269 264 262 259 257 254 251 248 247 247 246 243 240 239 241 243 245 246 246 246 246 246 246 249 252 256 260 265 269 272 273 271 269 266 264 265 266 265 264 263 262 262 263 264 264 265 268 271 275 278 276
263 258 253 248 241 239 243 245 247 250 253 256 260 259 261 265 257 246 242 245 255 263 268 276 278 276 277 277 279 279 278 277 276 276 273 268 265 262 258 256 253 250 248 247 246 245 243 240 239 240 242 244 245 246 248 250 252 254 257 261 265 268 270 272 272 272 270 267 263 263 264 263 261 262 261 259 260 262 263 265 267 271 274 275 274
Height
10909 10907 10906 10905 10905 10904 10902 10901 10900 10899 10898 10897 10896 10895 10895 10894 10894 10893 10893 10892 10890 10889 10888 10887 10885 10883 10881 10878 10874 10872 10871 10869 10868 10866 10864 10861 10859 10857 10855 10853 10849 10846 10842 10839 10836 10834 10831 10828 10826 10824 10821 10819 10817 10814 10812 10810 10808 10808 10808 10807 10806 10806 10805 10804 10803 10803 10802 10802 10802 10802 10802 10801 10801 10801 10801 10800 10799 10799 10798 10797 10797 10795 10794 10793 10793
10903 10902 10902 10901 10900 10899 10898 10896 10895 10894 10893 10892 10891 10890 10890 10890 10890 10889 10888 10887 10885 10885 10884 10883 10881 10879 10876 10873 10870 10868 10866 10865 10864 10862 10860 10857 10855 10852 10850 10848 10844 10841 10837 10834 10831 10828 10825 10823 10821 10818 10816 10814 10811 10809 10807 10805 10803 10803 10803 10803 10802 10802 10801 10801 10800 10799 10799 10800 10799 10799 10799 10799 10799 10798 10798 10797 10797 10796 10795 10795 10794 10793 10792 10791 10791
10898 10898 10897 10896 10895 10894 10893 10892 10891 10889 10889 10887 10886 10886 10886 10886 10885 10884 10883 10882 10881 10880 10879 10878 10877 10874 10871 10869 10866 10864 10862 10860 10859 10857 10855 10853 10850 10848 10845 10842 10839 10836 10832 10829 10826 10823 10820 10818 10815 10813 10811 10809 10806 10804 10802 10800 10799 10798 10798 10798 10798 10798 10798 10797 10797 10797 10797 10797 10796 10796 10796 10795 10795 10795 10795 10795 10794 10793 10792 10792 10791 10790 10790 10789 10789
10893 10894 10892 10892 10891 10890 10889 10887 10887 10885 10884 10883 10882 10882 10881 10881 10880 10879 10878 10877 10876 10875 10874 10873 10871 10869 10867 10864 10862 10859 10858 10856 10854 10852 10850 10848 10845 10842 10839 10837 10834 10831 10828 10825 10821 10818 10815 10812 10810 10808 10806 10804 10802 10799 10797 10796 10794 10794 10794 10794 10794 10794 10794 10794 10794 10794 10794 10793 10793 10792 10792 10792 10792 10792 10792 10792 10792 10791 10790 10789 10789 10788 10787 10787 10787
10889 10889 10887 10887 10886 10885 10884 10882 10882 10880 10880 10878 10878 10877 10876 10875 10875 10874 10873 10872 10871 10870 10869 10867 10865 10863 10862 10860 10858 10855 10853 10851 10849 10847 10845 10843 10839 10836 10834 10831 10829 10827 10823 10820 10816 10813 10811 10808 10805 10803 10801 10799 10797 10794 10793 10791 10791 10790 10790 10790 10790 10790 10791 10791 10791 10791 10790 10789 10789 10789 10789 10789 10789 10789 10789 10789 10789 10788 10787 10787 10786 10785 10785 10785 10784
10885 10884 10883 10882 10880 10879 10878 10877 10876 10876 10875 10874 10874 10872 10871 10870 10869 10869 10868 10867 10866 10865 10863 10862 10860 10858 10857 10855 10853 10850 10848 10846 10844 10842 10840 10837 10834 10831 10828 10826 10824 10822 10819 10815 10811 10808 10806 10803 10801 10799 10796 10794 10792 10790 10789 10788 10787 10786 10786 10786 10787 10787 10788 10789 10789 10788 10787 10786 10786 10786 10786 10786 10786 10786 10786 10786 10786 10785 10785 10784 10783 10783 10782 10782 10782
10880 10879 10878 10876 10875 10874 10873 10872 10871 10871 10871 10870 10869 10867 10866 10865 10864 10863 10863 10862 10861 10860 10858 10857 10855 10853 10852 10850 10848 10846 10843 10841 10839 10837 10834 10832 10829 10826 10823 10821 10820 10817 10814 10810 10807 10804 10801 10798 10796 10794 10792 10790 10788 10787 10785 10784 10784 10783 10783 10783 10783 10784 10786 10786 10786 10785 10784 10784 10783 10783 10783 10782 10782 10782 10782 10782 10782 10782 10782 10781 10781 10780 10780 10780 10780
10875 10874 10872 10871 10870 10869 10868 10867 10867 10866 10866 10865 10864 10862 10861 10860 10859 10858 10858 10857 10856 10855 10853 10852 10849 10848 10846 10845 10843 10841 10839 10836 10834 10831 10828 10826 10824 10821 10819 10817 10815 10813 10810 10806 10803 10799 10797 10794 10792 10790 10789 10787 10785 10783 10782 10781 10781 10780 10780 10780 10780 10781 10783 10783 10783 10782 10782 10781 10780 10780 10779 10779 10779 10779 10779 10779 10779 10779 10779 10778 10778 10778 10777 10777 10777
10870 10869 10867 10865 10864 10863 10863 10863 10863 10862 10861 10860 10859 10857 10856 10854 10853 10853 10852 10851 10851 10850 10848 10846 10844 10842 10841 10839 10838 10837 10834 10832 10829 10826 10822 10820 10819 10816 10814 10812 10811 10809 10805 10802 10798 10795 10792 10791 10789 10787 10785 10783 10781 10780 10779 10778 10778 10777 10777 10777 10778 10779 10780 10780 10780 10779 10778 10778 10777 10777 10776 10776 10775 10775 10775 10775 10775 10775 10775 10775 10775 10775 10775 10775 10775
10864 10863 10861 10860 10859 10859 10859 10859 10859 10858 10856 10855 10853 10852 10850 10849 10849 10848 10847 10846 10845 10844 10843 10841 10838 10836 10835 10834 10832 10832 10829 10827 10824 10820 10817 10815 10814 10811 10809 10807 10807 10804 10801 10798 10794 10791 10789 10788 10786 10784 10782 10780 10778 10777 10776 10776 10775 10775 10775 10775 10775 10776 10776 10776 10775 10775 10775 10775 10774 10773 10773 10772 10771 10771 10771 10771 10772 10772 10772 10772 10772 10772 10772 10772 10772
10858 10856 10855 10854 10855 10855 10856 10856 10854 10853 10851 10849 10847 10846 10845 10844 10844 10843 10842 10841 10840 10839 10837 10835 10833 10831 10829 10828 10826 10826 10824 10822 10819 10816 10813 10810 10808 10806 10805 10803 10802 10800 10797 10794 10790 10788 10786 10784 10783 10781 10778 10776 10775 10774 10773 10773 10773 10772 10772 10772 10772 10772 10772 10772 10771 10772 10772 10771 10771 10770 10770 10769 10768 10767 10767 10767 10768 10768 10768 10769 10769 10769 10769 10769 10770
10851 10849 10849 10849 10851 10852 10852 10851 10849 10847 10845 10843 10841 10841 10840 10840 10839 10838 10837 10836 10835 10834 10832 10830 10827 10825 10823 10821 10820 10819 10817 10816 10814 10812 10809 10805 10803 10802 10801 10800 10798 10796 10794 10791 10787 10785 10782 10781 10779 10777 10775 10773 10772 10771 10771 10770 10770 10770 10769 10769 10769 10769 10768 10768 10768 10768 10768 10768 10767 10767 10766 10765 10764 10764 10763 10764 10764 10765 10765 10766 10766 10766 10766 10767 10767
10844 10843 10845 10846 10847 10848 10846 10845 10842 10840 10838 10837 10836 10835 10835 10835 10834 10833 10831 10830 10830 10829 10827 10825 10822 10820 10818 10815 10814 10813 10812 10810 10809 10807 10804 10800 10798 10797 10797 10796 10795 10793 10790 10787 10785 10782 10779 10777 10776 10774 10772 10769 10768 10768 10767 10767 10767 10767 10766 10766 10766 10765 10764 10764 10764 10764 10764 10763 10763 10763 10763 10762 10761 10760 10760 10761 10761 10762 10762 10763 10763 10763 10764 10764 10765
10838 10840 10843 10843 10843 10842 10840 10837 10835 10834 10833 10832 10831 10830 10829 10829 10828 10826 10825 10825 10825 10824 10823 10820 10818 10816 10813 10810 10809 10809 10807 10805 10804 10802 10799 10795 10793 10792 10792 10791 10791 10789 10786 10784 10781 10779 10776 10774 10773 10770 10769 10767 10765 10765 10764 10763 10763 10763 10763 10763 10762 10762 10761 10761 10761 10761 10760 10759 10759 10759 10759 10759 10758 10758 10758 10758 10758 10759 10759 10760 10760 10761 10761 10761 10762
10836 10838 10840 10839 10838 10835 10833 10831 10829 10829 10829 10828 10825 10824 10823 10823 10822 10820 10820 10821 10821 10820 10818 10816 10813 10811 10808 10805 10804 10803 10802 10800 10799 10797 10794 10790 10788 10786 10786 10786 10786 10785 10782 10780 10778 10776 10774 10771 10769 10767 10766 10764 10762 10761 10760 10760 10760 10760 10760 10759 10759 10759 10758 10758 10758 10757 10756 10755 10755 10755 10756 10756 10756 10756 10756 10756 10756 10756 10757 10757 10758 10758 10759 10759 10759
10833 10833 10834 10833 10831 10828 10826 10825 10825 10825 10825 10824 10819 10817 10818 10817 10816 10815 10815 10817 10816 10815 10814 10811 10808 10806 10803 10801 10800 10798 10797 10795 10793 10790 10788 10785 10783 10781 10781 10781 10781 10779 10778 10776 10774 10772 10770 10768 10766 10764 10763 10761 10759 10758 10757 10757 10757 10756 10756 10756 10756 10755 10755 10755 10754 10754 10753 10752 10752 10752 10753 10753 10754 10754 10754 10754 10754 10754 10754 10755 10755 10756 10756 10757 10757
10829 10828 10828 10826 10824 10822 10820 10820 10821 10821 10821 10817 10812 10812 10813 10813 10812 10811 10811 10812 10813 10811 10808 10806 10803 10800 10798 10797 10795 10793 10791 10789 10786 10782 10781 10780 10778 10777 10776 10776 10775 10773 10773 10772 10770 10768 10767 10766 10764 10762 10760 10759 10757 10756 10754 10754 10753 10752 10752 10752 10752 10752 10752 10751 10751 10751 10749 10749 10749 10749 10749 10750 10751 10752 10752 10752 10752 10752 10752 10753 10753 10754 10754 10754 10755
10825 10822 10821 10819 10817 10816 10816 10816 10816 10816 10814 10808 10805 10807 10808 10808 10807 10807 10808 10809 10810 10806 10802 10798 10795 10793 10792 10792 10791 10789 10786 10783 10780 10776 10775 10774 10773 10773 10773 10772 10770 10769 10768 10767 10766 10765 10765 10764 10761 10758 10756 10756 10755 10753 10751 10751 10750 10749 10749 10748 10748 10748 10748 10748 10748 10748 10746 10746 10746 10746 10746 10747 10748 10749 10749 10750 10750 10750 10750 10750 10751 10752 10752 10752 10753
10819 10816 10813 10812 10811 10813 10813 10814 10812 10809 10804 10798 10799 10801 10801 10801 10802 10802 10803 10805 10806 10804 10798 10791 10787 10786 10786 10787 10787 10784 10781 10778 10775 10771 10770 10770 10769 10769 10769 10768 10766 10765 10763 10762 10762 10762 10762 10761 10758 10755 10753 10752 10751 10749 10748 10747 10746 10746 10745 10745 10744 10744 10744 10744 10744 10744 10743 10743 10744 10743 10743 10744 10745 10746 10747 10747 10748 10748 10748 10748 10749 10749 10750 10750 10751
10812 10810 10808 10807 10808 10810 10811 10810 10805 10799 10795 10792 10793 10794 10795 10795 10797 10798 10798 10798 10800 10799 10795 10788 10783 10781 10782 10782 10782 10781 10778 10775 10772 10768 10766 10765 10765 10767 10766 10764 10762 10761 10759 10759 10759 10759 10759 10758 10756 10753 10750 10748 10747 10746 10745 10744 10743 10742 10741 10741 10741 10740 10741 10741 10741 10740 10739 10741 10742 10741 10741 10741 10742 10743 10744 10745 10746 10746 10746 10746 10746 10747 10747 10748 10748
10806 10805 10804 10804 10805 10806 10809 10807 10797 10790 10788 10788 10788 10788 10789 10790 10792 10792 10791 10791 10792 10791 10788 10783 10780 10778 10778 10778 10778 10777 10776 10773 10769 10765 10763 10761 10761 10763 10762 10761 10759 10757 10756 10756 10756 10755 10755 10754 10752 10750 10747 10745 10744 10743 10742 10741 10739 10738 10738 10737 10737 10737 10738 10738 10738 10736 10735 10738 10739 10738 10738 10739 10739 10740 10741 10742 10743 10744 10744 10744 10744 10744 10745 10745 10746
10800 10800 10801 10804 10803 10801 10803 10801 10790 10783 10783 10784 10784 10783 10784 10784 10785 10786 10785 10784 10783 10782 10780 10778 10776 10775 10775 10774 10773 10773 10773 10771 10767 10763 10761 10758 10757 10757 10757 10757 10755 10754 10753 10752 10751 10751 10750 10749 10747 10746 10744 10742 10741 10740 10738 10737 10736 10735 10734 10734 10734 10734 10735 10736 10735 10732 10732 10736 10737 10736 10736 10737 10737 10738 10739 10740 10741 10741 10741 10741 10742 10742 10742 10743 10743
10793 10793 10798 10802 10800 10797 10797 10791 10781 10778 10781 10782 10780 10779 10778 10778 10779 10779 10778 10776 10775 10774 10773 10773 10772 10771 10770 10769 10768 10769 10769 10767 10764 10761 10759 10756 10754 10753 10753 10752 10751 10750 10749 10747 10746 10745 10744 10743 10742 10742 10741 10740 10738 10738 10736 10734 10733 10732 10731 10731 10731 10732 10733 10733 10731 10729 10730 10733 10734 10734 10734 10735 10735 10735 10736 10737 10737 10738 10739 10739 10739 10740 10740 10740 10740
10784 10786 10791 10794 10793 10792 10791 10786 10778 10776 10778 10778 10775 10774 10773 10773 10772 10771 10770 10770 10769 10768 10767 10768 10768 10767 10765 10763 10764 10764 10764 10762 10760 10758 10756 10754 10751 10750 10749 10749 10748 10746 10744 10743 10741 10740 10739 10738 10738 10737 10737 10738 10736 10735 10734 10732 10730 10729 10729 10728 10729 10729 10730 10731 10728 10726 10728 10731 10731 10732 10732 10732 10733 10733 10733 10734 10734 10735 10736 10737 10737 10737 10738 10737 10738
10777 10780 10782 10782 10782 10784 10784 10783 10779 10775 10773 10771 10770 10768 10768 10767 10766 10765 10764 10764 10764 10762 10761 10762 10763 10761 10759 10759 10760 10759 10758 10757 10756 10755 10753 10752 10749 10748 10747 10746 10745 10742 10741 10739 10738 10737 10736 10735 10735 10734 10734 10735 10735 10733 10731 10729 10728 10727 10726 10726 10727 10727 10728 10728 10725 10724 10726 10728 10728 10729 10729 10730 10730 10730 10731 10731 10732 10732 10733 10733 10734 10734 10734 10734 10735
10772 10776 10774 10772 10774 10776 10776 10776 10775 10772 10768 10765 10764 10763 10763 10761 10760 10759 10759 10759 10758 10757 10756 10757 10756 10755 10754 10755 10755 10754 10752 10752 10752 10751 10750 10748 10747 10747 10746 10744 10742 10739 10738 10737 10736 10735 10734 10732 10731 10731 10732 10732 10733 10732 10730 10728 10726 10725 10724 10724 10724 10725 10725 10724 10722 10722 10724 10724 10725 10726 10727 10727 10727 10728 10728 10728 10728 10729 10729 10729 10729 10730 10731 10731 10731
10768 10770 10768 10767 10769 10769 10768 10768 10767 10766 10762 10759 10759 10758 10757 10755 10753 10753 10753 10752 10752 10752 10751 10750 10748 10748 10749 10750 10750 10748 10746 10747 10747 10746 10745 10744 10744 10745 10744 10742 10739 10737 10736 10734 10735 10734 10732 10730 10727 10726 10728 10729 10730 10730 10729 10727 10725 10724 10723 10722 10722 10722 10723 10721 10720 10721 10721 10722 10722 10723 10724 10724 10724 10724 10724 10724 10724 10725 10725 10725 10725 10726 10727 10727 10728
10762 10764 10764 10763 10764 10762 10762 10762 10761 10759 10755 10754 10753 10752 10752 10749 10748 10747 10746 10746 10747 10747 10745 10743 10742 10742 10743 10743 10744 10742 10741 10741 10742 10742 10741 10741 10741 10742 10741 10739 10736 10735 10733 10731 10732 10732 10730 10729 10726 10725 10724 10725 10727 10729 10728 10727 10725 10723 10722 10721 10721 10720 10720 10718 10717 10717 10718 10719 10719 10720 10720 10720 10720 10720 10719 10719 10720 10720 10720 10721 10721 10722 10723 10723 10724
10757 10760 10760 10759 10758 10755 10755 10756 10755 10753 10750 10749 10747 10748 10747 10745 10743 10741 10741 10742 10742 10741 10739 10737 10735 10736 10736 10736 10737 10736 10736 10736 10736 10737 10738 10738 10739 10740 10738 10735 10733 10732 10730 10728 10728 10729 10728 10727 10725 10725 10724 10723 10725 10727 10726 10725 10724 10723 10722 10720 10720 10719 10718 10715 10714 10714 10714 10715 10716 10716 10716 10716 10716 10716 10716 10716 10716 10716 10717 10718 10718 10718 10719 10720 10720
10752 10754 10755 10754 10753 10749 10748 10749 10748 10746 10744 10743 10742 10742 10743 10741 10738 10736 10737 10737 10737 10736 10734 10732 10730 10731 10731 10730 10729 10729 10729 10730 10731 10732 10733 10734 10735 10737 10734 10731 10729 10728 10727 10725 10725 10726 10725 10724 10724 10724 10724 10723 10722 10724 10724 10723 10722 10722 10721 10720 10719 10719 10717 10712 10710 10712 10711 10711 10711 10712 10712 10713 10713 10713 10714 10713 10713 10713 10713 10714 10715 10715 10715 10716 10717
10747 10748 10750 10750 10749 10745 10743 10741 10739 10739 10738 10736 10735 10736 10737 10736 10732 10730 10732 10732 10732 10731 10728 10727 10726 10727 10727 10725 10724 10722 10722 10723 10725 10727 10729 10730 10732 10732 10730 10727 10725 10724 10723 10722 10722 10722 10722 10722 10723 10723 10723 10722 10720 10720 10722 10721 10721 10720 10719 10719 10718 10718 10717 10711 10708 10708 10709 10708 10708 10709 10710 10710 10710 10710 10710 10710 10710 10710 10710 10711 10711 10712 10712 10712 10713
10740 10742 10745 10745 10743 10742 10738 10734 10733 10733 10733 10730 10729 10730 10731 10730 10726 10725 10726 10726 10726 10725 10723 10722 10722 10722 10722 10721 10720 10718 10718 10718 10719 10722 10724 10726 10727 10727 10725 10723 10722 10721 10721 10719 10719 10719 10719 10720 10721 10721 10721 10720 10717 10717 10719 10719 10718 10718 10718 10718 10717 10718 10716 10709 10705 10706 10707 10707 10707 10707 10707 10706 10707 10707 10707 10707 10706 10706 10707 10707 10707 10707 10708 10709 10709
10733 10736 10740 10739 10738 10740 10734 10728 10728 10729 10727 10724 10723 10724 10724 10724 10722 10720 10721 10721 10720 10719 10719 10718 10717 10717 10717 10717 10716 10715 10714 10714 10715 10718 10719 10720 10722 10722 10720 10720 10720 10719 10718 10716 10715 10715 10716 10717 10718 10718 10719 10718 10715 10713 10715 10716 10716 10717 10717 10717 10716 10715 10711 10706 10704 10706 10706 10705 10705 10704 10703 10702 10703 10703 10703 10703 10703 10703 10703 10704 10704 10703 10703 10704 10705
10727 10730 10733 10733 10734 10736 10729 10723 10724 10724 10721 10718 10716 10717 10717 10717 10717 10716 10716 10715 10714 10714 10713 10712 10712 10711 10711 10712 10712 10711 10711 10710 10711 10714 10715 10715 10716 10716 10716 10716 10717 10716 10715 10712 10711 10711 10713 10713 10714 10715 10716 10716 10713 10711 10712 10713 10714 10715 10714 10714 10713 10711 10707 10704 10704 10705 10703 10701 10701 10700 10700 10700 10700 10700 10700 10699 10699 10700 10700 10699 10699 10699 10699 10699 10700
10723 10724 10727 10729 10729 10727 10721 10717 10718 10719 10715 10711 10709 10710 10710 10710 10711 10711 10711 10710 10708 10707 10707 10706 10706 10706 10706 10707 10707 10707 10707 10706 10707 10709 10710 10711 10711 10711 10712 10713 10714 10713 10711 10709 10707 10708 10709 10709 10710 10711 10712 10713 10712 10710 10709 10710 10710 10711 10710 10709 10710 10707 10705 10704 10703 10702 10699 10697 10697 10696 10696 10696 10697 10697 10696 10696 10695 10695 10695 10695 10695 10695 10695 10695 10695
10717 10718 10721 10723 10721 10717 10712 10711 10713 10714 10709 10704 10702 10702 10703 10703 10703 10704 10704 10703 10702 10701 10700 10700 10701 10701 10701 10702 10702 10703 10702 10702 10703 10704 10705 10706 10705 10706 10709 10710 10709 10709 10707 10705 10704 10703 10704 10705 10706 10708 10709 10709 10710 10709 10708 10707 10706 10706 10706 10705 10705 10704 10704 10702 10700 10699 10696 10694 10693 10692 10692 10692 10692 10693 10693 10692 10691 10690 10690 10691 10692 10692 10692 10692 10692
10712 10712 10714 10715 10712 10708 10705 10704 10708 10709 10703 10697 10695 10695 10695 10695 10696 10697 10696 10696 10695 10695 10695 10695 10695 10696 10696 10696 10697 10697 10698 10698 10699 10699 10700 10701 10700 10701 10703 10704 10704 10704 10702 10700 10699 10699 10699 10700 10702 10704 10705 10706 10707 10707 10706 10705 10704 10703 10702 10702 10702 10701 10701 10700 10697 10696 10694 10692 10690 10690 10689 10688 10689 10689 10688 10688 10686 10686 10687 10688 10689 10690 10690 10690 10690
10708 10707 10707 10706 10705 10702 10699 10699 10702 10701 10695 10691 10689 10688 10688 10688 10688 10689 10689 10689 10689 10689 10690 10690 10691 10691 10691 10691 10691 10691 10692 10693 10694 10695 10695 10695 10695 10696 10697 10698 10698 10698 10696 10695 10695 10695 10695 10696 10698 10700 10701 10702 10703 10703 10703 10703 10702 10701 10699 10698 10697 10697 10698 10698 10694 10692 10692 10690 10688 10687 10686 10685 10685 10685 10684 10683 10683 10683 10684 10686 10686 10686 10687 10687 10688
10703 10702 10701 10700 10699 10696 10692 10693 10694 10691 10688 10685 10683 10683 10682 10682 10683 10683 10683 10683 10684 10684 10685 10686 10686 10686 10686 10686 10685 10685 10685 10687 10688 10689 10689 10689 10689 10690 10690 10690 10691 10692 10691 10690 10690 10691 10691 10692 10694 10696 10697 10698 10699 10699 10699 10699 10699 10698 10696 10694 10693 10693 10695 10697 10694 10691 10690 10687 10686 10684 10682 10682 10682 10681 10680 10679 10680 10681 10681 10682 10683 10683 10684 10684 10684
10698 10698 10698 10697 10694 10689 10686 10687 10686 10685 10683 10680 10678 10677 10677 10677 10678 10678 10678 10678 10679 10680 10681 10682 10682 10682 10682 10681 10681 10681 10681 10682 10683 10684 10683 10682 10683 10684 10684 10683 10684 10685 10686 10685 10685 10687 10687 10688 10689 10692 10693 10694 10695 10695 10695 10696 10696 10695 10694 10692 10690 10689 10692 10694 10694 10692 10689 10685 10683 10681 10678 10679 10679 10677 10677 10677 10677 10678 10679 10680 10680 10680 10681 10681 10681
10694 10694 10695 10696 10692 10685 10681 10681 10681 10681 10680 10675 10673 10672 10672 10672 10672 10673 10673 10673 10674 10675 10676 10677 10677 10678 10678 10677 10677 10677 10677 10678 10678 10679 10678 10677 10678 10678 10678 10678 10678 10679 10680 10679 10680 10682 10683 10684 10685 10687 10689 10690 10690 10691 10692 10692 10692 10692 10692 10690 10688 10687 10689 10690 10690 10691 10689 10685 10682 10679 10676 10677 10677 10676 10675 10675 10675 10676 10676 10677 10677 10678 10678 10679 10679
10689 10690 10694 10696 10692 10685 10678 10675 10675 10675 10674 10671 10669 10668 10666 10666 10667 10667 10668 10668 10670 10671 10671 10672 10672 10673 10673 10672 10672 10672 10672 10672 10674 10674 10673 10673 10672 10672 10673 10673 10673 10674 10674 10674 10675 10677 10679 10679 10680 10682 10684 10685 10685 10686 10687 10688 10689 10688 10688 10687 10685 10685 10686 10685 10685 10686 10686 10684 10682 10678 10673 10673 10675 10674 10673 10673 10674 10674 10674 10674 10675 10675 10676 10676 10676
10684 10687 10693 10694 10690 10684 10676 10671 10670 10669 10668 10666 10665 10663 10662 10662 10662 10663 10663 10664 10665 10666 10667 10667 10667 10668 10668 10667 10667 10666 10666 10666 10668 10669 10668 10668 10667 10667 10668 10667 10668 10668 10668 10669 10670 10673 10674 10675 10675 10676 10678 10679 10680 10680 10682 10683 10684 10684 10684 10683 10682 10682 10681 10680 10680 10681 10682 10682 10680 10676 10671 10670 10671 10671 10671 10672 10672 10672 10672 10672 10672 10673 10673 10672 10672
10680 10685 10689 10688 10685 10682 10675 10669 10666 10665 10663 10661 10660 10659 10658 10658 10659 10659 10660 10661 10661 10662 10663 10663 10663 10664 10663 10663 10662 10661 10661 10661 10661 10662 10663 10663 10663 10663 10663 10663 10663 10663 10662 10663 10666 10669 10670 10670 10670 10671 10672 10673 10674 10675 10677 10678 10679 10680 10679 10678 10678 10678 10677 10675 10675 10676 10678 10679 10678 10675 10669 10667 10667 10667 10668 10669 10669 10669 10669 10669 10669 10670 10670 10669 10669
10677 10682 10685 10684 10681 10679 10673 10665 10662 10660 10658 10656 10655 10655 10654 10654 10654 10655 10656 10657 10658 10659 10659 10659 10660 10659 10658 10657 10657 10657 10656 10656 10657 10657 10658 10659 10660 10660 10659 10659 10659 10659 10658 10658 10661 10664 10665 10665 10665 10666 10667 10668 10669 10671 10672 10674 10675 10675 10674 10674 10675 10674 10672 10671 10671 10671 10674 10675 10675 10673 10668 10665 10663 10663 10665 10666 10666 10666 10666 10666 10666 10666 10666 10666 10666
10674 10679 10684 10682 10676 10673 10667 10660 10657 10655 10652 10651 10650 10651 10650 10650 10650 10651 10653 10654 10654 10655 10655 10656 10655 10654 10653 10652 10652 10652 10652 10653 10653 10653 10654 10654 10656 10656 10656 10656 10656 10655 10654 10654 10656 10659 10660 10660 10661 10662 10662 10663 10665 10667 10668 10668 10670 10670 10669 10669 10670 10669 10668 10666 10666 10666 10668 10670 10671 10670 10666 10663 10661 10660 10662 10663 10662 10662 10662 10662 10663 10663 10663 10663 10663
10671 10676 10678 10673 10666 10664 10659 10652 10650 10649 10647 10647 10647 10647 10647 10646 10647 10648 10650 10650 10651 10652 10652 10652 10651 10650 10649 10648 10648 10648 10649 10649 10649 10649 10650 10650 10651 10652 10652 10652 10652 10652 10651 10650 10652 10654 10655 10656 10656 10657 10658 10659 10661 10663 10664 10664 10665 10665 10665 10664 10664 10664 10664 10662 10662 10662 10663 10664 10665 10664 10661 10659 10659 10658 10659 10659 10659 10659 10659 10659 10660 10660 10660 10660 10660
10666 10668 10665 10657 10651 10651 10647 10641 10641 10642 10643 10645 10645 10644 10643 10643 10643 10644 10646 10647 10648 10649 10649 10648 10647 10646 10645 10644 10644 10644 10645 10645 10645 10645 10646 10646 10647 10648 10648 10649 10649 10648 10647 10647 10648 10650 10651 10651 10652 10653 10654 10655 10657 10658 10659 10659 10659 10659 10660 10658 10658 10658 10659 10658 10658 10659 10659 10659 10659 10658 10656 10656 10655 10655 10655 10656 10656 10656 10655 10655 10656 10656 10656 10657 10657
10658 10656 10651 10645 10642 10641 10638 10635 10636 10638 10641 10643 10642 10641 10641 10640 10639 10640 10641 10643 10645 10646 10645 10644 10643 10642 10641 10641 10641 10641 10641 10641 10641 10642 10642 10643 10644 10644 10645 10645 10645 10645 10644 10643 10644 10645 10647 10648 10649 10649 10650 10651 10652 10653 10654 10654 10654 10654 10655 10653 10653 10654 10654 10654 10654 10655 10655 10655 10654 10653 10652 10652 10651 10651 10651 10652 10653 10653 10652 10652 10652 10652 10652 10652 10652
10652 10648 10643 10640 10638 10636 10634 10633 10634 10637 10639 10639 10638 10637 10637 10636 10635 10636 10638 10640 10642 10642 10642 10640 10639 10638 10638 10637 10637 10637 10637 10637 10637 10638 10639 10640 10641 10641 10642 10642 10642 10642 10641 10641 10640 10641 10643 10644 10645 10645 10646 10646 10647 10648 10648 10648 10648 10649 10649 10649 10649 10650 10649 10649 10649 10650 10651 10650 10649 10649 10648 10647 10647 10647 10647 10648 10648 10649 10649 10648 10648 10648 10648 10648 10647
10644 10637 10632 10631 10633 10631 10628 10629 10632 10635 10635 10634 10634 10633 10633 10632 10632 10633 10635 10636 10638 10638 10637 10636 10636 10635 10634 10634 10634 10634 10634 10634 10634 10635 10636 10637 10638 10638 10639 10640 10640 10640 10639 10639 10638 10638 10639 10640 10641 10641 10642 10642 10642 10643 10643 10643 10643 10644 10644 10644 10645 10645 10644 10644 10644 10645 10646 10645 10645 10645 10644 10643 10643 10643 10643 10643 10644 10644 10644 10643 10643 10643 10643 10643 10642